User: anonymous   Login
Location: Unspecified
(0.0000°N, 0.0000°E)
Time: 01:10:08
(UTC+00:00)
Language:

TBA - TO BE ASSIGNED - Orbit

View from above orbital plane
View from above orbital plane
View from above satellite
View from above satellite

Ground track
Ground track

The orbit is defined by the following mean orbital elements,

1 68953U          26145.58335647 +.00000000 +00000-0 +25904-3 0 00006
2 68953  53.1588 268.8862 0001601  46.0869  16.0826 15.49311530    09
Epoch (UTC): 25 May 2026 14:00:01
Eccentricity: 0.0001601
inclination: 53.1588°
perigee height: 418 km
apogee height: 420 km
right ascension of ascending node: 268.8862°
argument of perigee: 46.0869°
revolutions per day: 15.49311530
mean anomaly at epoch: 16.0826°

The dashed part of the orbit path shows where the satellite is in the earth's shadow,  

DLR